To NAV CANADA Home Page Login to a new session Search on AWWS site Feedback and Comments Disclaimer Vers la page française équivalente Tips FAQ What's new on the site To the Forecasts and Observations / NOTAM section To "File a Flight Plan" website Publications and other links Update of the User's profile FIC Telephone Numbers My Weather Data Folder Route Weather Data Regional Weather Data Local Weather Data To the Forecasts and Observations / NOTAM section
Request Generated 10/17/2017 at 01:42:24 UTC . Weather information available at that time is displayed.

METAR/TAF

QUAQTAQ/QC    

LWIS CYHA 170100Z AUTO 33006KT M00/M02 A2959=
LWIS CYHA 170000Z AUTO 33006KT M00/M02 A2958=
LWIS CYHA 162300Z AUTO 31007KT M00/M01 A2958=

*** REMARK        : Forecast period has ended; this was the last TAF issued
*** REMARQUE : La période de prévision est échue; ceci était le dernier TAF qui a été émis
TAF AMD CYHA 162005Z 1620/1621 34010KT 2SM -SN BR BKN006 OVC015 TEMPO
1620/1621 5SM -DZSG BR SCT006 OVC015
RMK NXT FCST WILL BE ISSUED AT 171345Z=
Your time UTC time
Weather data provided by Environment Canada and NAV CANADA